FW6116 Weather Reports


Display with metric or nautical units.
time (UTC)temp
F
wind
direction
speed
MPH
gust
MPH
rain 1hr
in
rain 24hr
in
rain mn
in
humidity
%
barometer
mb
20260504120129 39 338 2.0 6.0 0.00 0.00 0.00 71 1004.9
20260504100141 42 311 0.0 3.0 0.00 0.00 0.00 63 1005.0
20260504081530 43 286 1.0 4.0 0.00 0.00 0.00 63 1005.2
20260504050001 54 323 1.0 3.0 0.00 0.00 0.00 45 1005.2
20260504044600 56 263 1.0 6.0 0.00 0.00 0.00 42 1005.2
20260504043115 56 292 0.0 4.0 0.00 0.00 0.00 42 1005.3
20260504041559 57 32 1.0 2.0 0.00 0.00 0.00 42 1005.3
20260504040059 58 33 1.0 2.0 0.00 0.00 0.00 41 1005.2
20260504034559 58 28 0.0 3.0 0.00 0.00 0.00 39 1005.1
20260504033119 58 51 3.0 5.0 0.00 0.00 0.00 40 1005.1
20260504031600 59 94 1.0 3.0 0.00 0.00 0.00 38 1004.8
20260504030115 60 94 2.0 4.0 0.00 0.00 0.00 36 1004.6
20260504024557 61 92 3.0 6.0 0.00 0.00 0.00 36 1004.4
20260504023056 62 117 2.0 9.0 0.00 0.00 0.00 36 1004.3
20260504021557 64 107 8.0 10.0 0.00 0.00 0.00 34 1004.2
20260504020105 65 117 5.0 10.0 0.00 0.00 0.00 31 1004.0
20260504014604 67 102 5.0 11.0 0.00 0.00 0.00 29 1003.8
20260504013056 69 109 8.0 11.0 0.00 0.00 0.00 27 1003.7
20260504011553 71 88 3.0 6.0 0.00 0.00 0.00 24 1003.8
20260504010058 72 96 6.0 8.0 0.00 0.00 0.00 22 1003.9
20260504004552 72 121 6.0 11.0 0.00 0.00 0.00 23 1004.0
20260504003050 73 96 7.0 12.0 0.00 0.00 0.00 21 1004.0
20260504001556 73 93 6.0 13.0 0.00 0.00 0.00 20 1004.0
20260504000051 73 107 9.0 18.0 0.00 0.00 0.00 22 1004.1
20260503234543 74 95 10.0 24.0 0.00 0.00 0.00 21 1004.1
20260503233040 76 21 5.0 10.0 0.00 0.00 0.00 16 1004.2
20260503231538 76 71 1.0 4.0 0.00 0.00 0.00 17 1004.3
20260503230045 75 103 5.0 9.0 0.00 0.00 0.00 19 1004.4
20260503224532 75 188 1.0 9.0 0.00 0.00 0.00 20 1004.5
20260503223031 74 196 1.0 9.0 0.00 0.00 0.00 19 1004.7
20260503221533 73 198 5.0 9.0 0.00 0.00 0.00 20 1004.9
20260503220033 72 128 4.0 10.0 0.00 0.00 0.00 21 1005.3
20260503214536 72 360 5.0 12.0 0.00 0.00 0.00 23 1005.6
20260503213032 73 360 6.0 9.0 0.00 0.00 0.00 22 1005.8
20260503211521 75 102 5.0 11.0 0.00 0.00 0.00 21 1006.2
20260503210021 77 302 1.0 6.0 0.00 0.00 0.00 18 1006.3
20260503204526 76 263 3.0 12.0 0.00 0.00 0.00 19 1006.4
20260503203016 76 159 2.0 8.0 0.00 0.00 0.00 19 1006.7
20260503201513 76 302 1.0 8.0 0.00 0.00 0.00 19 1006.8
20260503200009 74 350 1.0 9.0 0.00 0.00 0.00 20 1007.1
20260503194506 73 225 2.0 4.0 0.00 0.00 0.00 21 1007.5
20260503193006 72 74 10.0 15.0 0.00 0.00 0.00 23 1008.0
20260503191502 71 49 9.0 14.0 0.00 0.00 0.00 22 1008.2
20260503190059 72 17 4.0 10.0 0.00 0.00 0.00 22 1008.5
20260503184554 71 165 5.0 9.0 0.00 0.00 0.00 26 1008.7
20260503183057 70 115 1.0 7.0 0.00 0.00 0.00 25 1008.9
20260503181559 70 61 3.0 10.0 0.00 0.00 0.00 26 1009.1
20260503180050 69 68 3.0 13.0 0.00 0.00 0.00 29 1009.4
20260503174547 67 360 4.0 9.0 0.00 0.00 0.00 30 1009.6
20260503173040 66 103 2.0 6.0 0.00 0.00 0.00 34 1009.9
20260503171535 66 360 1.0 6.0 0.00 0.00 0.00 33 1010.1